CW3742 Weather Reports


Display with metric or nautical units.
time (UTC)temp
F
wind
direction
speed
MPH
gust
MPH
rain 1hr
in
rain 24hr
in
rain mn
in
humidity
%
barometer
mb
20260507003017 54 0 14.0 23.0 0.00 0.00 0.00 37 996.6
20260507000017 56 0 10.0 23.0 0.00 0.00 0.00 36 996.7
20260506233017 56 0 15.0 27.0 0.00 0.00 0.00 35 996.7
20260506230017 56 0 14.0 26.0 0.00 0.00 0.00 35 996.9
20260506223017 57 0 15.0 28.0 0.00 0.00 0.00 35 997.0
20260506220017 56 0 17.0 30.0 0.00 0.00 0.00 40 996.9
20260506213017 56 0 13.0 30.0 0.00 0.00 0.00 37 996.9
20260506210017 57 0 13.0 28.0 0.00 0.00 0.00 36 997.0
20260506203017 56 0 12.0 29.0 0.00 0.00 0.00 37 997.2
20260506200017 55 0 13.0 26.0 0.00 0.00 0.00 37 997.5
20260506193038 56 0 12.0 28.0 0.00 0.00 0.00 40 997.5
20260506190018 56 0 14.0 27.0 0.00 0.00 0.00 37 997.6
20260506183017 54 0 13.0 29.0 0.00 0.00 0.00 40 997.6
20260506180017 54 0 14.0 27.0 0.00 0.00 0.00 39 997.9
20260506173018 53 0 13.0 26.0 0.00 0.00 0.00 41 997.9
20260506170017 54 0 14.0 25.0 0.00 0.00 0.00 41 997.8
20260506163017 53 0 12.0 23.0 0.00 0.00 0.00 41 997.8
20260506160017 52 0 10.0 21.0 0.00 0.00 0.00 45 997.8
20260506153038 51 0 9.0 17.0 0.00 0.00 0.00 49 997.7
20260506150017 50 0 7.0 16.0 0.00 0.00 0.00 53 997.8
20260506143017 48 0 7.0 17.0 0.00 0.00 0.00 58 997.5
20260506140018 46 0 5.0 13.0 0.00 0.00 0.00 61 997.3
20260506133017 44 0 6.0 12.0 0.00 0.00 0.00 65 997.0
20260506130017 44 0 8.0 13.0 0.00 0.00 0.00 67 997.2
20260506123037 43 0 7.0 12.0 0.00 0.00 0.00 70 996.8
20260506120018 41 0 7.0 10.0 0.00 0.00 0.00 75 996.0
20260506113017 41 0 7.0 9.0 0.00 0.00 0.00 76 995.2
20260506110058 40 0 6.0 8.0 0.00 0.01 0.00 76 994.6
20260506103017 41 0 5.0 8.0 0.00 0.01 0.00 74 994.6
20260506100038 41 0 6.0 9.0 0.00 0.01 0.00 74 994.2
20260506093038 42 0 5.0 7.0 0.00 0.01 0.00 72 994.4
20260506090017 44 0 4.0 7.0 0.00 0.01 0.00 68 994.1
20260506083017 45 0 4.0 7.0 0.00 0.01 0.00 66 993.7
20260506073017 46 0 3.0 6.0 0.00 0.01 0.00 65 993.6
20260506043018 49 0 6.0 18.0 0.00 0.01 0.00 66 992.0
20260506040017 50 0 4.0 10.0 0.00 0.01 0.00 66 992.0
20260506033017 51 0 8.0 11.0 0.00 0.01 0.00 65 992.0
20260506030017 50 0 8.0 10.0 0.00 0.01 0.00 65 992.0
20260506023017 51 0 6.0 9.0 0.00 0.01 0.00 63 991.7
20260506020038 51 0 6.0 8.0 0.00 0.01 0.00 61 991.3
20260506013038 53 0 6.0 8.0 0.00 0.01 0.00 59 990.7
20260506010022 54 0 5.0 8.0 0.00 0.01 0.00 57 990.6